| time (UTC) | temp F | wind direction | speed MPH | gust MPH | rain 1hr in | rain 24hr in | rain mn in | humidity % | barometer mb |
| 20260504050003 | 49 | 311 | 1.0 | 3.0 | 0.00 | 0.00 | 0.00 | 54 | 1018.9 |
| 20260504045003 | 49 | 210 | 1.0 | 1.0 | 0.00 | 0.00 | 0.00 | 54 | 1018.7 |
| 20260504044504 | 49 | 232 | 2.0 | 3.0 | 0.00 | 0.00 | 0.00 | 54 | 1018.7 |
| 20260504044003 | 49 | 274 | 2.0 | 2.0 | 0.00 | 0.00 | 0.00 | 55 | 1018.7 |
| 20260504043503 | 49 | 278 | 2.0 | 3.0 | 0.00 | 0.00 | 0.00 | 54 | 1018.6 |
| 20260504043003 | 49 | 278 | 2.0 | 5.0 | 0.00 | 0.00 | 0.00 | 54 | 1018.4 |
| 20260504042503 | 49 | 270 | 0.0 | 5.0 | 0.00 | 0.00 | 0.00 | 54 | 1018.3 |
| 20260504042003 | 49 | 222 | 2.0 | 7.0 | 0.00 | 0.00 | 0.00 | 53 | 1018.3 |
| 20260504041503 | 49 | 332 | 3.0 | 6.0 | 0.00 | 0.00 | 0.00 | 53 | 1018.4 |
| 20260504040503 | 49 | 251 | 4.0 | 3.0 | 0.00 | 0.00 | 0.00 | 53 | 1018.7 |
| 20260504040004 | 49 | 288 | 3.0 | 3.0 | 0.00 | 0.00 | 0.00 | 52 | 1018.5 |
| 20260504035503 | 49 | 292 | 3.0 | 6.0 | 0.00 | 0.00 | 0.00 | 53 | 1018.6 |
| 20260504035003 | 49 | 247 | 4.0 | 6.0 | 0.00 | 0.00 | 0.00 | 52 | 1018.7 |
| 20260504034503 | 48 | 285 | 3.0 | 5.0 | 0.00 | 0.00 | 0.00 | 53 | 1018.7 |
| 20260504034004 | 48 | 263 | 4.0 | 5.0 | 0.00 | 0.00 | 0.00 | 52 | 1018.6 |
| 20260504033503 | 48 | 281 | 3.0 | 5.0 | 0.00 | 0.00 | 0.00 | 52 | 1018.6 |
| 20260504033003 | 48 | 285 | 5.0 | 5.0 | 0.00 | 0.00 | 0.00 | 52 | 1018.6 |
| 20260504032503 | 48 | 204 | 3.0 | 5.0 | 0.00 | 0.00 | 0.00 | 53 | 1018.5 |
| 20260504032003 | 48 | 270 | 3.0 | 5.0 | 0.00 | 0.00 | 0.00 | 53 | 1018.6 |
| 20260504031503 | 48 | 242 | 3.0 | 5.0 | 0.00 | 0.00 | 0.00 | 53 | 1018.7 |
| 20260504031003 | 48 | 238 | 1.0 | 3.0 | 0.00 | 0.00 | 0.00 | 52 | 1018.7 |
| 20260504030503 | 49 | 263 | 3.0 | 3.0 | 0.00 | 0.00 | 0.00 | 52 | 1018.7 |
| 20260504025003 | 49 | 304 | 0.0 | 2.0 | 0.00 | 0.00 | 0.00 | 50 | 1018.6 |
| 20260504024504 | 49 | 268 | 2.0 | 3.0 | 0.00 | 0.00 | 0.00 | 50 | 1018.7 |
| 20260504024003 | 49 | 267 | 2.0 | 2.0 | 0.00 | 0.00 | 0.00 | 50 | 1018.7 |
| 20260504023003 | 50 | 277 | 2.0 | 5.0 | 0.00 | 0.00 | 0.00 | 48 | 1018.8 |
| 20260504022003 | 49 | 274 | 2.0 | 3.0 | 0.00 | 0.00 | 0.00 | 48 | 1018.6 |
| 20260504021503 | 50 | 284 | 3.0 | 5.0 | 0.00 | 0.00 | 0.00 | 48 | 1018.5 |
| 20260504021004 | 50 | 250 | 2.0 | 3.0 | 0.00 | 0.00 | 0.00 | 47 | 1018.4 |
| 20260504020003 | 50 | 256 | 2.0 | 3.0 | 0.00 | 0.00 | 0.00 | 46 | 1018.4 |
| 20260504015003 | 50 | 292 | 3.0 | 3.0 | 0.00 | 0.00 | 0.00 | 47 | 1018.3 |
| 20260504014503 | 50 | 292 | 2.0 | 3.0 | 0.00 | 0.00 | 0.00 | 46 | 1018.3 |
| 20260504013503 | 50 | 301 | 1.0 | 3.0 | 0.00 | 0.00 | 0.00 | 46 | 1018.1 |
| 20260504013003 | 50 | 292 | 3.0 | 5.0 | 0.00 | 0.00 | 0.00 | 46 | 1018.1 |
| 20260504012004 | 50 | 292 | 3.0 | 3.0 | 0.00 | 0.00 | 0.00 | 48 | 1018.1 |
| 20260504011003 | 51 | 287 | 4.0 | 5.0 | 0.00 | 0.00 | 0.00 | 47 | 1017.9 |
| 20260504010503 | 51 | 256 | 3.0 | 6.0 | 0.00 | 0.00 | 0.00 | 47 | 1017.9 |
| 20260504010004 | 51 | 263 | 5.0 | 6.0 | 0.00 | 0.00 | 0.00 | 48 | 1017.9 |
| 20260504005004 | 51 | 255 | 3.0 | 5.0 | 0.00 | 0.00 | 0.00 | 47 | 1017.8 |
| 20260504004503 | 52 | 260 | 4.0 | 5.0 | 0.00 | 0.00 | 0.00 | 46 | 1017.7 |
| 20260504004004 | 52 | 258 | 4.0 | 5.0 | 0.00 | 0.00 | 0.00 | 46 | 1017.6 |
| 20260504003504 | 52 | 275 | 5.0 | 5.0 | 0.00 | 0.00 | 0.00 | 46 | 1017.5 |
| 20260504003003 | 53 | 246 | 4.0 | 3.0 | 0.00 | 0.00 | 0.00 | 45 | 1017.6 |
| 20260504002503 | 53 | 322 | 4.0 | 6.0 | 0.00 | 0.00 | 0.00 | 45 | 1017.5 |
| 20260504002004 | 53 | 250 | 3.0 | 5.0 | 0.00 | 0.00 | 0.00 | 44 | 1017.4 |
| 20260504001503 | 54 | 289 | 4.0 | 3.0 | 0.00 | 0.00 | 0.00 | 43 | 1017.6 |
| 20260504001004 | 54 | 292 | 5.0 | 3.0 | 0.00 | 0.00 | 0.00 | 43 | 1017.6 |
| 20260504000003 | 55 | 296 | 6.0 | 5.0 | 0.00 | 0.00 | 0.00 | 43 | 1017.6 |
| 20260503235503 | 55 | 293 | 5.0 | 5.0 | 0.00 | 0.00 | 0.00 | 42 | 1017.5 |
| 20260503235004 | 55 | 296 | 3.0 | 3.0 | 0.00 | 0.00 | 0.00 | 42 | 1017.5 |
| 20260503233503 | 57 | 265 | 1.0 | 2.0 | 0.00 | 0.00 | 0.00 | 40 | 1017.5 |
| 20260503232003 | 57 | 299 | 1.0 | 2.0 | 0.00 | 0.00 | 0.00 | 34 | 1017.4 |
| 20260503231504 | 58 | 280 | 0.0 | 2.0 | 0.00 | 0.00 | 0.00 | 33 | 1017.4 |
| 20260503231004 | 58 | 293 | 2.0 | 3.0 | 0.00 | 0.00 | 0.00 | 34 | 1017.4 |
| 20260503230503 | 58 | 308 | 1.0 | 5.0 | 0.00 | 0.00 | 0.00 | 32 | 1017.3 |
| 20260503230004 | 58 | 267 | 7.0 | 9.0 | 0.00 | 0.00 | 0.00 | 31 | 1017.2 |
| 20260503225504 | 58 | 282 | 1.0 | 6.0 | 0.00 | 0.00 | 0.00 | 32 | 1017.3 |
| 20260503225004 | 59 | 182 | 4.0 | 6.0 | 0.00 | 0.00 | 0.00 | 30 | 1017.3 |
| 20260503223003 | 59 | 150 | 2.0 | 8.0 | 0.00 | 0.00 | 0.00 | 31 | 1017.4 |
| 20260503222503 | 59 | 214 | 2.0 | 6.0 | 0.00 | 0.00 | 0.00 | 29 | 1017.5 |
| 20260503222004 | 59 | 88 | 0.0 | 9.0 | 0.00 | 0.00 | 0.00 | 29 | 1017.5 |
| 20260503221504 | 59 | 280 | 4.0 | 7.0 | 0.00 | 0.00 | 0.00 | 29 | 1017.5 |
| 20260503221004 | 59 | 209 | 3.0 | 8.0 | 0.00 | 0.00 | 0.00 | 28 | 1017.6 |
| 20260503220503 | 60 | 297 | 6.0 | 12.0 | 0.00 | 0.00 | 0.00 | 29 | 1017.7 |
| 20260503220003 | 60 | 227 | 10.0 | 13.0 | 0.00 | 0.00 | 0.00 | 28 | 1017.6 |
| 20260503215504 | 60 | 332 | 3.0 | 13.0 | 0.00 | 0.00 | 0.00 | 27 | 1017.6 |
| 20260503215003 | 60 | 244 | 6.0 | 14.0 | 0.00 | 0.00 | 0.00 | 29 | 1017.6 |
| 20260503214504 | 60 | 163 | 3.0 | 12.0 | 0.00 | 0.00 | 0.00 | 29 | 1017.7 |
| 20260503214004 | 60 | 267 | 3.0 | 12.0 | 0.00 | 0.00 | 0.00 | 29 | 1017.7 |
| 20260503213504 | 60 | 187 | 7.0 | 9.0 | 0.00 | 0.00 | 0.00 | 29 | 1017.7 |
| 20260503213003 | 60 | 204 | 8.0 | 12.0 | 0.00 | 0.00 | 0.00 | 28 | 1017.8 |
| 20260503212503 | 60 | 209 | 8.0 | 10.0 | 0.00 | 0.00 | 0.00 | 29 | 1017.8 |
| 20260503212004 | 60 | 221 | 6.0 | 14.0 | 0.00 | 0.00 | 0.00 | 28 | 1017.8 |
| 20260503211004 | 60 | 254 | 5.0 | 12.0 | 0.00 | 0.00 | 0.00 | 29 | 1017.8 |
| 20260503210504 | 60 | 245 | 4.0 | 10.0 | 0.00 | 0.00 | 0.00 | 29 | 1017.9 |
| 20260503210004 | 60 | 211 | 8.0 | 13.0 | 0.00 | 0.00 | 0.00 | 30 | 1017.9 |
| 20260503205503 | 60 | 243 | 9.0 | 10.0 | 0.00 | 0.00 | 0.00 | 30 | 1017.9 |
| 20260503205003 | 60 | 191 | 3.0 | 10.0 | 0.00 | 0.00 | 0.00 | 29 | 1017.9 |
| 20260503204504 | 59 | 95 | 2.0 | 8.0 | 0.00 | 0.00 | 0.00 | 30 | 1018.0 |
| 20260503204003 | 59 | 193 | 10.0 | 13.0 | 0.00 | 0.00 | 0.00 | 30 | 1018.1 |
| 20260503203504 | 59 | 203 | 7.0 | 16.0 | 0.00 | 0.00 | 0.00 | 30 | 1018.2 |
| 20260503203004 | 59 | 253 | 5.0 | 10.0 | 0.00 | 0.00 | 0.00 | 30 | 1018.2 |
| 20260503202504 | 59 | 216 | 10.0 | 14.0 | 0.00 | 0.00 | 0.00 | 30 | 1018.2 |
| 20260503202004 | 59 | 219 | 8.0 | 15.0 | 0.00 | 0.00 | 0.00 | 30 | 1018.3 |
| 20260503201504 | 59 | 213 | 9.0 | 14.0 | 0.00 | 0.00 | 0.00 | 29 | 1018.3 |
| 20260503201004 | 59 | 181 | 10.0 | 18.0 | 0.00 | 0.00 | 0.00 | 30 | 1018.4 |
| 20260503200504 | 59 | 241 | 9.0 | 15.0 | 0.00 | 0.00 | 0.00 | 32 | 1018.5 |
| 20260503195003 | 59 | 216 | 5.0 | 10.0 | 0.00 | 0.00 | 0.00 | 31 | 1018.8 |
| 20260503194004 | 59 | 205 | 10.0 | 16.0 | 0.00 | 0.00 | 0.00 | 32 | 1019.0 |
| 20260503193504 | 58 | 210 | 10.0 | 16.0 | 0.00 | 0.00 | 0.00 | 34 | 1019.1 |
| 20260503192004 | 59 | 219 | 10.0 | 14.0 | 0.00 | 0.00 | 0.00 | 32 | 1019.3 |
| 20260503191504 | 59 | 213 | 6.0 | 9.0 | 0.00 | 0.00 | 0.00 | 35 | 1019.2 |
| 20260503191004 | 59 | 178 | 8.0 | 12.0 | 0.00 | 0.00 | 0.00 | 35 | 1019.2 |
| 20260503190504 | 59 | 352 | 7.0 | 14.0 | 0.00 | 0.00 | 0.00 | 32 | 1019.3 |
| 20260503190004 | 59 | 166 | 6.0 | 10.0 | 0.00 | 0.00 | 0.00 | 35 | 1019.4 |
| 20260503185504 | 58 | 296 | 8.0 | 12.0 | 0.00 | 0.00 | 0.00 | 33 | 1019.6 |
| 20260503185004 | 58 | 354 | 9.0 | 12.0 | 0.00 | 0.00 | 0.00 | 34 | 1019.7 |
| 20260503184503 | 58 | 215 | 6.0 | 12.0 | 0.00 | 0.00 | 0.00 | 36 | 1019.7 |
| 20260503184004 | 58 | 212 | 13.0 | 21.0 | 0.00 | 0.00 | 0.00 | 35 | 1019.8 |
| 20260503183504 | 58 | 232 | 7.0 | 14.0 | 0.00 | 0.00 | 0.00 | 34 | 1019.8 |
| 20260503183003 | 58 | 344 | 6.0 | 16.0 | 0.00 | 0.00 | 0.00 | 37 | 1020.0 |
| 20260503182502 | 58 | 244 | 6.0 | 12.0 | 0.00 | 0.00 | 0.00 | 37 | 1020.0 |
| 20260503182003 | 58 | 345 | 7.0 | 13.0 | 0.00 | 0.00 | 0.00 | 34 | 1020.1 |
| 20260503181503 | 58 | 233 | 5.0 | 14.0 | 0.00 | 0.00 | 0.00 | 35 | 1020.0 |
| 20260503180502 | 58 | 358 | 12.0 | 14.0 | 0.00 | 0.00 | 0.00 | 33 | 1020.2 |
| 20260503180003 | 58 | 204 | 11.0 | 18.0 | 0.00 | 0.00 | 0.00 | 37 | 1020.2 |
| 20260503175502 | 58 | 207 | 8.0 | 10.0 | 0.00 | 0.00 | 0.00 | 37 | 1020.3 |
| 20260503175002 | 58 | 107 | 8.0 | 13.0 | 0.00 | 0.00 | 0.00 | 36 | 1020.3 |
| 20260503174003 | 57 | 271 | 7.0 | 16.0 | 0.00 | 0.00 | 0.00 | 39 | 1020.5 |
| 20260503173502 | 57 | 137 | 5.0 | 10.0 | 0.00 | 0.00 | 0.00 | 35 | 1020.6 |
| 20260503172502 | 57 | 2 | 6.0 | 12.0 | 0.00 | 0.00 | 0.00 | 36 | 1020.8 |
| 20260503172003 | 57 | 258 | 8.0 | 10.0 | 0.00 | 0.00 | 0.00 | 37 | 1020.8 |
| 20260503171502 | 57 | 251 | 9.0 | 14.0 | 0.00 | 0.00 | 0.00 | 36 | 1020.9 |
| 20260503171003 | 57 | 239 | 8.0 | 13.0 | 0.00 | 0.00 | 0.00 | 38 | 1021.0 |
| 20260503151002 | 54 | 225 | 8.0 | 12.0 | 0.00 | 0.00 | 0.00 | 39 | 1021.9 |
| 20260503150502 | 54 | 196 | 7.0 | 15.0 | 0.00 | 0.00 | 0.00 | 38 | 1021.9 |
| 20260503131002 | 45 | 79 | 2.0 | 10.0 | 0.00 | 0.00 | 0.00 | 53 | 1021.9 |
| 20260503130503 | 44 | 308 | 10.0 | 14.0 | 0.00 | 0.00 | 0.00 | 53 | 1021.8 |
| 20260503110502 | 39 | 286 | 1.0 | 5.0 | 0.00 | 0.00 | 0.00 | 66 | 1020.7 |
| 20260503090502 | 40 | 191 | 2.0 | 8.0 | 0.00 | 0.00 | 0.00 | 62 | 1018.9 |
| 20260503081503 | 40 | 165 | 0.0 | 0.0 | 0.00 | 0.00 | 0.00 | 69 | 1018.5 |
| 20260503081003 | 40 | 165 | 0.0 | 0.0 | 0.00 | 0.00 | 0.00 | 69 | 1018.4 |
| 20260503080503 | 40 | 165 | 0.0 | 0.0 | 0.00 | 0.00 | 0.00 | 69 | 1018.4 |
| 20260503072503 | 41 | 165 | 0.0 | 0.0 | 0.00 | 0.00 | 0.00 | 67 | 1018.1 |
| 20260503072002 | 41 | 165 | 0.0 | 0.0 | 0.00 | 0.00 | 0.00 | 67 | 1018.1 |
| 20260503071503 | 41 | 165 | 0.0 | 0.0 | 0.00 | 0.00 | 0.00 | 66 | 1018.1 |
| 20260503071003 | 41 | 165 | 0.0 | 0.0 | 0.00 | 0.00 | 0.00 | 66 | 1018.1 |
| 20260503070503 | 41 | 165 | 0.0 | 0.0 | 0.00 | 0.00 | 0.00 | 66 | 1018.1 |